This is the latest recevied weather packets stored in our database for station/object AG1T-20. If no packets are shown the sender has not sent any weather packets the latest 10 day(s).
| Time | Temp. | Humidity | Pressure | Rain* | Wind** | Luminosity | Snow |
|---|---|---|---|---|---|---|---|
| 1788456604 | 19.44° C | 36% | 1026.6 hPa | 0 mm | - | 851 W/m² | - |
| 1788456005 | 18.33° C | 39% | 1027 hPa | 0 mm | - | 843 W/m² | - |
| 1788455404 | 18.33° C | 40% | 1026.9 hPa | 0 mm | - | 841 W/m² | - |
| 1788454805 | 18.33° C | 43% | 1027 hPa | 0 mm | - | 844 W/m² | - |
| 1788454204 | 17.78° C | 42% | 1027.6 hPa | 0 mm | - | 819 W/m² | - |
| 1788453605 | 17.78° C | 43% | 1027.5 hPa | 0 mm | - | 794 W/m² | - |
| 1788453004 | 17.22° C | 44% | 1027.8 hPa | 0 mm | - | 808 W/m² | - |
| 1788452404 | 17.22° C | 44% | 1028 hPa | 0 mm | - | 786 W/m² | - |
| 1788451804 | 16.67° C | 47% | 1028.3 hPa | 0 mm | - | 766 W/m² | - |
| 1788451204 | 16.11° C | 47% | 1028.7 hPa | 0 mm | - | 752 W/m² | - |
| 1788450604 | 15.56° C | 50% | 1029 hPa | 0 mm | - | 724 W/m² | - |
| 1788450004 | 15° C | 49% | 1029.4 hPa | 0 mm | - | 706 W/m² | - |
| 1788449404 | 15° C | 48% | 1029.6 hPa | 0 mm | - | 673 W/m² | - |
| 1788448804 | 14.44° C | 49% | 1030 hPa | 0 mm | - | 643 W/m² | - |
| 1788448204 | 13.89° C | 58% | 1030.6 hPa | 0 mm | - | 543 W/m² | - |
| 1788447604 | 13.33° C | 53% | 1030.4 hPa | 0 mm | - | 553 W/m² | - |
| 1788447004 | 12.78° C | 54% | 1030.8 hPa | 0 mm | - | 562 W/m² | - |
| 1788446405 | 12.78° C | 57% | 1030.7 hPa | 0 mm | - | 561 W/m² | - |
| 1788445804 | 12.78° C | 63% | 1031 hPa | 0 mm | - | 491 W/m² | - |
| 1788445204 | 12.22° C | 62% | 1031 hPa | 0 mm | - | 466 W/m² | - |
| 1788444604 | 10.56° C | 66% | 1032.1 hPa | 0 mm | - | 426 W/m² | - |
| 1788444004 | 11.67° C | 64% | 1031.2 hPa | 0 mm | - | 365 W/m² | - |
| 1788443404 | 10.56° C | 68% | 1032 hPa | 0 mm | - | 292 W/m² | - |
| 1788442804 | 8.89° C | 74% | 1032.8 hPa | 0 mm | - | 260 W/m² | - |
| 1788442204 | 7.78° C | 77% | 1033.5 hPa | 0 mm | - | 40 W/m² | - |
* Rain latest hour (hover to see other rain measurements)
** Current wind speed in m/s (hover to see current wind gust speed)